Météo par heure à Jurva

Ce jour, 20 Juin, Dimanche

Heure Température Précipitation Vent Pression Humidité
00:00 +15°C° 0 mm 2 m/s 751 mmHg 97%
01:00 +14°C° 0 mm 2 m/s 750 mmHg 98%
02:00 +15°C° 0.1 mm 2 m/s 750 mmHg 97%
03:00 +16°C° 0.1 mm 2 m/s 750 mmHg 95%
04:00 +16°C° 0.1 mm 2 m/s 749 mmHg 94%
05:00 +17°C° 0.1 mm 2 m/s 750 mmHg 91%
06:00 +18°C° 0.1 mm 2 m/s 750 mmHg 87%
07:00 +19°C° 0 mm 2 m/s 750 mmHg 85%
08:00 +19°C° 0 mm 2 m/s 750 mmHg 79%
09:00 +20°C° 0 mm 3 m/s 750 mmHg 73%
10:00 +21°C° 0 mm 3 m/s 750 mmHg 68%
11:00 +22°C° 0 mm 3 m/s 750 mmHg 65%
12:00 +24°C° 0 mm 3 m/s 751 mmHg 62%
13:00 +25°C° 0 mm 3 m/s 750 mmHg 59%
14:00 +24°C° 0 mm 3 m/s 750 mmHg 59%
15:00 +24°C° 0 mm 3 m/s 751 mmHg 59%
16:00 +24°C° 0 mm 3 m/s 751 mmHg 60%
17:00 +23°C° 0 mm 2 m/s 750 mmHg 64%
18:00 +20°C° 0 mm 2 m/s 750 mmHg 69%
19:00 +19°C° 0 mm 2 m/s 750 mmHg 73%
20:00 +17°C° 0 mm 2 m/s 750 mmHg 80%
21:00 +16°C° 0 mm 2 m/s 750 mmHg 87%
22:00 +14°C° 0 mm 2 m/s 750 mmHg 94%
23:00 +15°C° 0 mm 2 m/s 750 mmHg 94%

Demain, 21 Juin, Lundi

Heure Température Précipitation Vent Pression Humidité
00:00 +15°C° 0 mm 2 m/s 750 mmHg 93%
01:00 +16°C° 0 mm 2 m/s 749 mmHg 93%
02:00 +17°C° 0 mm 2 m/s 749 mmHg 89%
03:00 +18°C° 0 mm 3 m/s 749 mmHg 85%
04:00 +19°C° 0 mm 3 m/s 748 mmHg 82%
05:00 +21°C° 0 mm 4 m/s 748 mmHg 75%
06:00 +23°C° 0 mm 4 m/s 748 mmHg 69%
07:00 +26°C° 0 mm 5 m/s 747 mmHg 62%
08:00 +27°C° 0 mm 5 m/s 747 mmHg 60%
09:00 +28°C° 0 mm 6 m/s 747 mmHg 58%
10:00 +28°C° 0 mm 6 m/s 747 mmHg 56%
11:00 +28°C° 0.1 mm 6 m/s 747 mmHg 56%
12:00 +28°C° 0.1 mm 6 m/s 748 mmHg 56%
13:00 +27°C° 0.1 mm 6 m/s 748 mmHg 56%
14:00 +27°C° 0 mm 6 m/s 748 mmHg 58%
15:00 +26°C° 0 mm 6 m/s 748 mmHg 60%
16:00 +26°C° 0 mm 5 m/s 748 mmHg 62%
17:00 +23°C° 0 mm 5 m/s 748 mmHg 67%
18:00 +22°C° 0 mm 4 m/s 749 mmHg 71%
19:00 +21°C° 0 mm 3 m/s 749 mmHg 75%
20:00 +19°C° 0 mm 3 m/s 749 mmHg 81%
21:00 +18°C° 0 mm 2 m/s 749 mmHg 87%
22:00 +16°C° 0 mm 2 m/s 750 mmHg 93%
23:00 +16°C° 0 mm 2 m/s 750 mmHg 93%

Après-demain, 22 Juin, Mardi

Heure Température Précipitation Vent Pression Humidité
00:00 +15°C° 0 mm 2 m/s 750 mmHg 93%
01:00 +15°C° 0 mm 1 m/s 750 mmHg 93%
02:00 +16°C° 0 mm 1 m/s 750 mmHg 91%
03:00 +18°C° 0 mm 1 m/s 750 mmHg 90%
04:00 +19°C° 0 mm 1 m/s 750 mmHg 88%
05:00 +20°C° 0 mm 1 m/s 750 mmHg 81%
06:00 +21°C° 0 mm 2 m/s 750 mmHg 74%
07:00 +24°C° 0 mm 2 m/s 749 mmHg 67%
08:00 +25°C° 0.3 mm 2 m/s 749 mmHg 65%
09:00 +26°C° 0.3 mm 2 m/s 749 mmHg 64%
10:00 +27°C° 0.3 mm 2 m/s 749 mmHg 63%
11:00 +26°C° 0.9 mm 3 m/s 749 mmHg 68%
12:00 +25°C° 0.9 mm 3 m/s 749 mmHg 74%
13:00 +24°C° 0.9 mm 3 m/s 749 mmHg 79%
14:00 +21°C° 1.6 mm 3 m/s 749 mmHg 84%
15:00 +20°C° 1.6 mm 3 m/s 749 mmHg 89%
16:00 +18°C° 1.6 mm 3 m/s 750 mmHg 93%
17:00 +17°C° 1 mm 3 m/s 750 mmHg 94%
18:00 +17°C° 1 mm 3 m/s 750 mmHg 96%
19:00 +16°C° 1 mm 2 m/s 750 mmHg 97%
20:00 +16°C° 0.3 mm 2 m/s 750 mmHg 98%
21:00 +15°C° 0.3 mm 2 m/s 750 mmHg 98%
22:00 +15°C° 0.3 mm 2 m/s 751 mmHg 98%
23:00 +15°C° 0.1 mm 2 m/s 751 mmHg 98%

23 Juin, Mercredi

Heure Température Précipitation Vent Pression Humidité
00:00 +14°C° 0.1 mm 2 m/s 751 mmHg 98%
01:00 +13°C° 0.1 mm 3 m/s 751 mmHg 98%
02:00 +13°C° 0.1 mm 3 m/s 751 mmHg 98%
03:00 +13°C° 0.1 mm 3 m/s 752 mmHg 97%
04:00 +12°C° 0.1 mm 3 m/s 752 mmHg 97%
05:00 +12°C° 0.1 mm 3 m/s 752 mmHg 97%
06:00 +12°C° 0.1 mm 3 m/s 752 mmHg 97%
07:00 +12°C° 0.1 mm 3 m/s 753 mmHg 97%
08:00 +12°C° 0.1 mm 3 m/s 753 mmHg 96%
09:00 +11°C° 0.1 mm 3 m/s 753 mmHg 96%
10:00 +11°C° 0.1 mm 3 m/s 754 mmHg 95%
11:00 +12°C° 0.1 mm 3 m/s 754 mmHg 93%
12:00 +12°C° 0.1 mm 3 m/s 754 mmHg 91%
13:00 +13°C° 0.1 mm 2 m/s 755 mmHg 88%
14:00 +15°C° 0 mm 2 m/s 755 mmHg 79%
15:00 +17°C° 0 mm 2 m/s 755 mmHg 70%
16:00 +18°C° 0 mm 2 m/s 755 mmHg 60%
17:00 +18°C° 0 mm 2 m/s 755 mmHg 62%
18:00 +17°C° 0 mm 2 m/s 755 mmHg 63%
19:00 +17°C° 0 mm 2 m/s 755 mmHg 64%
20:00 +15°C° 0 mm 2 m/s 756 mmHg 72%
21:00 +13°C° 0 mm 1 m/s 756 mmHg 80%
22:00 +11°C° 0 mm 1 m/s 756 mmHg 89%
23:00 +10°C° 0 mm 1 m/s 756 mmHg 88%

24 Juin, Jeudi

Heure Température Précipitation Vent Pression Humidité
00:00 +10°C° 0 mm 1 m/s 757 mmHg 87%
01:00 +9°C° 0 mm 0 m/s 757 mmHg 86%
02:00 +10°C° 0 mm 0 m/s 757 mmHg 82%
03:00 +10°C° 0 mm 0 m/s 757 mmHg 78%
04:00 +11°C° 0 mm 0 m/s 757 mmHg 74%
05:00 +13°C° 0 mm 0 m/s 757 mmHg 67%
06:00 +15°C° 0 mm 0 m/s 757 mmHg 61%
07:00 +17°C° 0 mm 0 m/s 757 mmHg 54%
08:00 +19°C° 0 mm 0 m/s 757 mmHg 50%
09:00 +22°C° 0 mm 1 m/s 757 mmHg 45%
10:00 +24°C° 0 mm 1 m/s 756 mmHg 41%
11:00 +24°C° 0 mm 1 m/s 756 mmHg 39%
12:00 +24°C° 0 mm 1 m/s 756 mmHg 38%
13:00 +25°C° 0 mm 1 m/s 756 mmHg 36%
14:00 +24°C° 0 mm 1 m/s 756 mmHg 40%
15:00 +23°C° 0 mm 1 m/s 755 mmHg 44%
16:00 +23°C° 0 mm 1 m/s 755 mmHg 47%
17:00 +21°C° 0 mm 1 m/s 755 mmHg 54%
18:00 +20°C° 0 mm 1 m/s 755 mmHg 60%
19:00 +19°C° 0 mm 1 m/s 755 mmHg 67%
20:00 +18°C° 0 mm 1 m/s 755 mmHg 70%
21:00 +15°C° 0 mm 1 m/s 755 mmHg 73%
22:00 +14°C° 0 mm 1 m/s 755 mmHg 77%
23:00 +13°C° 0 mm 1 m/s 755 mmHg 78%

25 Juin, Vendredi

Heure Température Précipitation Vent Pression Humidité
00:00 +13°C° 0 mm 1 m/s 754 mmHg 79%
01:00 +12°C° 0 mm 1 m/s 754 mmHg 80%
02:00 +13°C° 0 mm 1 m/s 754 mmHg 78%
03:00 +14°C° 0 mm 1 m/s 754 mmHg 76%
04:00 +15°C° 0 mm 1 m/s 754 mmHg 75%
05:00 +18°C° 0 mm 1 m/s 754 mmHg 67%
06:00 +18°C° 0 mm 0 m/s 754 mmHg 60%
07:00 +20°C° 0 mm 0 m/s 754 mmHg 52%
08:00 +23°C° 0 mm 1 m/s 754 mmHg 47%
09:00 +25°C° 0 mm 1 m/s 754 mmHg 42%
10:00 +26°C° 0 mm 2 m/s 754 mmHg 37%
11:00 +26°C° 0 mm 2 m/s 754 mmHg 37%
12:00 +26°C° 0 mm 2 m/s 754 mmHg 36%
13:00 +26°C° 0 mm 2 m/s 753 mmHg 35%
14:00 +26°C° 0 mm 3 m/s 753 mmHg 38%
15:00 +25°C° 0 mm 3 m/s 753 mmHg 40%
16:00 +25°C° 0 mm 3 m/s 753 mmHg 42%
17:00 +22°C° 0 mm 3 m/s 753 mmHg 48%
18:00 +21°C° 0 mm 3 m/s 753 mmHg 53%
19:00 +19°C° 0 mm 3 m/s 753 mmHg 59%
20:00 +18°C° 0 mm 3 m/s 753 mmHg 62%
21:00 +16°C° 0 mm 3 m/s 753 mmHg 64%
22:00 +14°C° 0 mm 2 m/s 754 mmHg 67%
23:00 +13°C° 0 mm 2 m/s 754 mmHg 69%
Voir plus

Nous avons besoin de votre consentement

Meteoprog et ses fournisseurs de services peuvent stocker et accéder à des données personnelles telles que des cookies, des identifiants d'appareils ou d'autres technologies similaires sur votre appareil et traiter ces données pour personnaliser le contenu et les publicités, ainsi que pour fournir des fonctionnalités de médias sociaux et analyser le trafic.

  • Stocker et/ou accéder à des informations sur votre appareil

    Des cookies, des identifiants d'appareils ou d'autres informations peuvent être stockés ou accessibles sur votre appareil aux fins indiquées ci-dessus.

  • Annonces et contenus personnalisés, mesure des annonces et des contenus, connaissance de l'audience et développement de produits

    Les annonces et le contenu peuvent être personnalisés en fonction d'un profil. D'autres données peuvent être ajoutées pour mieux personnaliser les annonces et le contenu. Les performances des publicités et du contenu peuvent être mesurées. Il est possible d'obtenir des informations sur le public qui a vu les publicités et le contenu. Ces données peuvent être utilisées pour développer ou améliorer l'expérience de l'utilisateur, les systèmes et les logiciels.

En cliquant sur "J'accepte", vous autorisez l'utilisation de cookies, des identifiants d'appareils, des balises web ou d'autres technologies similaires. Vos paramètres peuvent être modifiés dans le navigateur de votre appareil.

Dans certains cas, des intérêts légitimes peuvent être invoqués plutôt qu'un consentement. Vous pouvez en savoir plus à ce sujet dans notre Politique de confidentialité et de cookies.